Theta_e
320 320 319 318 318 319 319 319 316 316 319 319 318 320 319 319 318 318 318 318 317 315 315 313 310 308 307 306 307 308 306 306 308 309 312 311 308 309 311 311 310 309 308 310 312 312 311 310 311 310 315 316 313 315 313 315 321 329 338 332 322 323 324 321 318 317 321 321 315 312 313 318 317 311 309 309 312 316 314 318 319 320 323 320 320 321 325 334
320 320 319 318 318 318 318 316 315 316 319 319 319 319 319 319 318 318 318 317 317 315 314 311 308 307 306 306 306 306 306 307 309 310 311 309 309 310 310 310 309 309 309 310 312 311 312 311 309 312 318 317 313 315 315 313 320 334 334 325 328 331 323 319 318 316 316 316 316 313 312 314 315 313 311 312 316 316 315 316 317 323 324 322 321 322 327 332
320 319 319 317 317 318 317 316 316 318 320 319 319 319 318 319 317 317 318 317 317 315 313 309 307 307 306 306 305 306 306 307 309 310 310 309 310 310 309 310 308 309 311 312 312 310 312 312 309 314 318 317 315 316 318 316 318 327 329 327 333 333 320 315 316 317 314 314 318 315 310 312 313 312 311 314 317 315 318 318 315 321 324 329 324 322 329 331
320 319 318 317 317 316 315 317 318 319 319 318 318 318 318 318 317 317 317 316 316 315 312 309 307 307 306 306 306 306 307 309 309 309 310 311 311 309 309 309 308 310 312 312 311 310 311 311 310 315 318 317 316 316 317 317 316 319 325 330 327 322 318 315 315 317 314 312 317 315 311 312 311 311 312 315 317 316 319 318 316 319 325 336 326 323 331 331
319 319 317 317 317 314 314 318 319 319 319 318 318 318 318 317 316 316 316 316 316 313 311 310 308 307 306 305 306 307 309 310 311 311 312 311 310 310 309 309 310 313 314 312 310 310 310 310 311 317 318 315 316 317 315 313 314 316 317 319 319 317 315 314 313 314 312 311 314 315 313 313 310 311 314 315 317 318 318 316 318 316 323 337 328 325 331 331
319 318 317 316 316 315 316 318 319 318 318 318 317 317 317 316 316 316 316 316 315 311 309 310 309 307 306 305 306 307 310 310 310 314 314 312 309 309 309 308 312 315 314 311 310 310 310 310 311 316 317 315 315 316 315 310 312 319 315 311 314 315 313 312 312 313 311 313 315 315 313 311 312 312 313 315 316 317 313 310 311 309 316 326 326 327 331 332
319 317 316 315 316 317 317 318 318 317 318 318 318 317 317 316 315 315 315 316 314 311 309 309 309 306 306 306 307 309 311 311 311 314 316 313 310 309 309 308 313 316 313 311 310 312 312 312 313 316 316 316 314 312 313 311 313 321 317 312 312 311 312 311 310 311 310 314 315 311 311 312 315 314 310 312 316 314 308 303 303 307 315 321 324 328 330 332
318 316 316 315 316 318 317 317 316 317 317 317 317 316 316 315 315 315 315 315 315 313 309 308 308 306 306 306 309 311 311 312 312 314 316 315 313 311 310 311 313 313 312 311 311 312 312 312 313 313 315 315 313 312 311 312 315 320 317 313 312 310 311 310 309 311 311 312 310 309 312 314 313 311 310 314 317 313 308 309 312 314 319 323 326 329 329 331
317 316 316 316 316 317 317 316 315 316 317 316 317 316 316 314 314 315 314 315 315 312 308 307 307 306 307 307 310 311 309 311 312 313 316 316 315 313 312 312 312 311 312 311 310 311 311 312 312 311 314 312 311 313 312 313 315 317 316 314 313 312 311 310 311 312 312 311 309 311 314 313 309 308 313 317 315 311 311 325 331 326 330 328 327 327 327 330
317 316 317 316 316 317 316 315 314 315 316 317 316 315 315 314 314 314 313 314 313 310 307 307 306 307 308 307 309 308 309 313 312 313 315 315 314 313 312 312 311 311 311 310 309 310 311 312 310 309 312 311 311 312 311 312 313 314 315 314 313 312 312 312 312 312 313 312 311 314 314 312 308 309 315 315 309 309 319 337 333 333 343 332 326 326 326 328
317 316 316 315 315 315 314 314 314 315 316 316 314 314 314 314 314 314 313 312 311 308 307 306 307 308 308 307 308 307 311 314 313 314 313 313 313 311 312 311 311 311 310 310 309 309 311 310 306 308 311 311 311 312 311 310 311 313 315 314 312 312 312 313 313 313 314 312 311 315 314 312 309 312 319 313 307 309 323 341 334 335 341 329 325 325 324 326
317 316 316 315 315 314 313 313 313 315 316 315 314 314 314 314 314 314 313 311 310 309 307 307 308 309 308 307 307 308 312 315 314 313 312 312 312 311 311 311 311 311 310 310 310 310 310 309 308 311 311 310 312 312 311 311 312 313 314 315 313 313 313 312 313 313 313 312 312 315 312 314 313 315 319 311 307 311 319 333 336 334 331 325 326 324 323 323
317 316 315 315 315 313 312 312 314 315 315 314 314 314 314 314 313 313 312 310 311 311 308 308 309 309 309 308 308 308 312 316 315 313 311 311 311 311 311 311 311 311 311 311 310 310 310 309 310 312 311 313 314 310 310 312 313 313 312 316 314 313 313 310 312 314 313 311 310 312 312 317 319 315 313 309 307 312 317 324 328 331 327 323 323 323 324 321
316 316 315 315 314 312 312 313 315 315 314 314 314 314 314 314 313 313 312 311 312 312 310 310 311 310 308 309 309 308 312 315 315 312 311 311 311 312 312 312 312 312 312 312 311 311 310 309 309 311 310 313 312 308 314 317 316 314 310 316 317 314 315 311 313 316 312 310 309 309 311 317 319 313 308 308 310 311 316 321 320 323 323 320 320 321 322 320
316 316 315 315 314 312 312 314 315 314 313 314 314 313 313 313 313 312 312 311 312 312 311 311 311 309 307 309 309 309 312 314 314 312 311 312 311 312 312 313 313 313 312 312 312 311 310 310 313 314 310 310 310 312 318 320 322 319 311 316 316 312 315 313 314 317 314 311 311 309 312 315 315 312 307 307 311 311 315 320 316 317 317 317 317 316 317 316
316 316 315 315 314 313 313 313 313 313 314 314 313 312 312 313 313 312 312 311 312 313 311 311 311 307 306 308 309 311 313 313 313 312 311 312 312 312 312 312 312 312 312 311 312 310 310 313 313 312 311 311 313 317 318 318 322 322 317 321 318 313 314 313 313 314 314 314 313 310 312 316 315 314 310 307 311 312 314 318 317 318 316 315 313 312 313 312
317 316 315 315 314 313 313 312 313 313 315 315 313 312 311 312 312 312 311 311 313 312 310 312 310 306 305 307 310 313 313 313 312 311 312 312 312 312 311 311 310 310 311 310 311 311 310 313 310 310 315 314 314 318 316 314 317 318 320 322 318 315 314 313 313 311 311 313 313 312 312 316 317 314 312 310 311 312 315 319 319 320 318 316 312 310 310 309
317 316 315 315 314 314 312 312 312 313 314 314 312 311 311 312 312 312 313 313 312 309 310 312 308 307 307 307 311 313 312 312 312 311 312 312 312 312 312 311 308 309 312 312 312 312 312 314 313 316 318 313 313 315 314 316 316 315 318 318 315 314 312 314 316 311 310 313 314 315 313 314 315 313 313 311 309 312 315 317 316 316 317 316 314 312 310 309
317 316 315 315 314 313 312 312 313 313 313 312 312 311 311 311 311 313 313 311 309 307 310 310 307 309 309 308 312 311 311 312 312 312 312 312 311 311 312 311 311 313 313 314 312 312 318 317 314 317 316 313 314 314 318 322 320 318 319 319 319 318 314 316 317 311 310 314 314 316 315 316 316 315 316 312 310 313 313 313 313 313 314 315 315 314 313 313
317 316 315 314 313 313 312 313 313 313 312 311 312 311 311 311 312 314 312 311 309 306 309 310 309 310 309 310 312 311 311 311 311 312 311 311 311 311 311 310 314 315 313 317 314 310 318 319 315 317 315 315 315 313 317 319 317 317 318 320 321 319 316 314 314 312 310 313 315 317 318 318 316 316 316 312 309 312 313 314 315 315 315 315 316 316 315 316
316 315 314 313 313 312 312 313 313 312 311 311 311 310 311 310 311 313 312 312 308 303 307 309 309 311 309 310 311 309 311 311 311 312 312 311 311 312 312 311 314 314 313 318 315 310 315 317 317 317 314 313 314 313 315 315 315 317 316 317 317 317 317 313 312 313 310 312 316 317 317 317 317 316 316 312 310 314 316 316 318 319 318 314 314 316 315 312
316 315 314 313 313 312 312 312 312 311 311 311 309 309 313 310 308 311 311 311 307 303 307 308 310 314 310 309 310 309 313 315 313 313 312 311 311 312 313 314 314 314 313 314 314 313 314 317 317 315 311 311 313 315 317 317 320 321 317 316 316 316 317 312 311 313 310 312 318 319 317 317 317 316 316 314 312 314 315 315 316 317 317 313 311 313 312 311
316 315 314 314 313 312 312 312 311 311 311 312 309 308 313 308 307 310 309 311 308 305 309 310 313 317 312 311 311 310 312 314 315 314 311 311 312 313 313 314 314 314 313 313 315 315 316 317 315 310 309 311 313 314 317 318 319 320 317 317 317 315 316 314 313 313 310 310 315 318 316 317 317 315 316 312 308 310 311 312 312 311 313 312 310 311 310 310
316 314 314 314 312 312 312 311 311 310 310 311 309 309 310 308 309 310 309 311 309 308 309 308 313 318 314 311 311 311 312 312 313 314 311 311 313 312 313 314 314 314 313 313 314 315 316 311 307 308 310 313 314 312 316 318 316 316 319 325 324 318 318 317 313 313 312 308 311 314 313 320 326 322 320 314 308 311 311 310 312 310 309 308 309 310 308 309
316 315 314 313 312 312 312 311 311 310 310 310 310 309 310 310 308 308 310 311 309 308 307 307 311 316 313 311 311 311 312 311 312 311 310 311 313 312 311 311 312 313 313 313 313 314 313 306 304 309 310 313 314 313 318 320 316 314 318 328 327 320 320 318 314 315 317 312 309 309 311 326 333 329 325 320 317 320 314 313 316 314 311 311 312 313 311 309
316 315 314 312 312 312 311 311 310 310 310 310 310 310 311 311 308 308 311 313 310 308 308 309 309 310 311 311 312 312 312 311 309 309 310 310 310 310 310 310 310 313 313 312 312 313 310 305 308 312 312 314 314 313 316 318 318 314 315 320 321 322 323 321 318 317 319 314 307 308 314 321 325 326 326 319 319 322 317 317 320 316 315 317 317 315 313 310
316 314 313 312 312 312 311 311 310 309 311 311 309 310 311 311 308 308 311 313 312 310 309 308 306 309 312 310 311 312 312 313 310 310 311 309 308 309 311 312 310 312 312 312 313 312 309 308 310 312 314 316 314 314 313 315 319 314 313 316 320 323 325 324 322 321 320 313 311 317 318 314 316 318 320 315 316 320 319 319 322 317 317 320 317 314 311 309
316 314 313 312 311 311 310 310 309 309 310 310 309 310 312 311 307 308 312 310 310 310 308 307 306 310 311 308 311 312 311 313 314 311 308 307 307 309 314 314 313 314 311 311 313 311 311 314 313 312 314 315 314 315 313 316 320 316 310 313 317 320 325 326 326 324 318 310 315 323 314 311 318 321 320 314 313 318 320 319 318 317 319 319 316 315 312 312
315 313 313 312 311 311 310 310 309 309 309 308 310 311 311 310 306 309 313 308 307 309 307 307 308 311 311 309 311 313 311 313 315 312 308 307 307 308 312 312 313 316 311 313 317 313 312 314 313 312 313 314 314 313 313 320 321 313 307 311 314 317 322 323 324 324 318 314 321 321 310 310 317 324 324 315 311 317 319 316 316 318 321 318 317 318 316 317
315 313 312 311 311 310 309 309 308 309 309 308 311 311 310 309 308 308 308 307 309 309 306 307 309 312 312 310 312 313 313 314 313 312 311 311 309 308 309 308 313 318 317 319 320 315 310 309 311 312 312 313 312 310 312 316 314 310 312 316 316 321 324 322 324 320 314 320 325 316 311 311 310 321 326 314 312 318 315 313 315 319 322 320 320 321 319 319
314 313 311 311 311 309 310 309 309 308 308 309 311 310 308 311 312 309 306 309 312 309 306 308 309 312 312 310 313 313 314 314 312 312 313 311 311 311 310 309 314 319 319 320 318 315 312 310 312 313 312 312 313 312 309 309 311 315 322 320 316 322 324 323 327 319 313 325 323 311 310 311 309 318 322 316 316 316 313 313 313 316 321 322 324 322 321 320
313 312 312 311 311 310 311 311 309 308 309 311 311 309 308 311 311 309 307 308 311 309 309 310 309 312 312 311 314 314 315 316 312 313 315 313 311 311 312 314 317 317 315 318 318 316 316 315 312 311 310 312 316 317 311 312 317 319 320 321 320 322 319 322 329 319 316 323 314 307 310 310 310 315 314 315 318 315 314 314 313 314 316 321 323 322 322 323
313 312 311 311 312 310 310 311 308 308 311 311 309 310 314 313 309 310 308 306 308 309 311 312 310 312 313 311 313 314 315 315 313 314 314 313 312 310 311 315 319 319 317 319 320 317 317 318 314 312 313 312 314 317 315 315 317 315 316 319 323 322 315 316 320 314 314 318 310 306 310 312 313 313 312 314 312 311 312 311 312 313 313 317 317 317 322 324
312 312 311 311 312 310 310 310 307 310 312 310 307 310 315 313 310 311 309 307 310 311 312 314 313 312 312 313 313 313 315 313 311 313 313 313 312 312 312 311 314 322 322 318 318 317 317 319 316 314 314 312 313 315 317 318 315 314 316 318 320 325 324 320 320 319 321 318 310 306 311 319 318 309 311 315 310 310 310 309 311 312 312 312 310 312 321 326
312 312 311 311 311 310 310 309 307 311 311 308 306 309 311 310 310 310 308 309 313 314 312 312 313 312 313 315 313 311 316 315 312 312 313 313 313 313 313 309 311 321 321 315 315 315 314 316 314 312 310 312 314 313 315 317 314 314 314 314 316 322 325 319 314 318 317 313 312 310 314 321 316 307 309 310 309 311 310 310 313 316 313 310 312 318 325 331
312 311 311 311 310 310 310 309 309 311 310 307 307 310 310 310 314 312 308 311 314 312 311 312 314 314 313 314 314 311 314 316 313 313 313 313 312 312 312 310 312 316 315 316 318 316 313 313 313 312 311 312 314 311 312 316 316 314 312 314 316 316 319 315 307 307 308 310 313 313 314 317 312 310 314 312 312 312 310 312 314 316 315 313 320 328 330 330
311 311 311 310 310 311 311 310 310 311 310 307 307 310 310 309 313 314 310 312 313 310 312 313 312 314 313 313 315 313 314 315 312 313 314 312 313 313 312 312 312 312 312 316 318 317 317 315 313 315 314 310 309 311 313 313 313 315 316 315 312 310 315 317 312 313 313 313 318 314 313 315 312 313 318 317 313 313 314 316 315 314 315 314 321 331 330 325
311 311 311 310 310 311 311 312 311 311 310 308 309 313 314 309 309 313 311 310 310 311 313 313 312 313 313 313 314 312 313 314 312 313 314 312 314 314 312 312 312 311 312 313 313 315 321 318 311 312 315 312 310 314 314 311 309 314 318 313 312 315 317 313 312 318 315 311 320 321 312 309 310 315 321 316 312 314 315 315 315 314 315 316 322 329 328 323
311 311 311 310 310 310 312 312 311 310 310 309 309 312 315 314 312 315 314 309 311 313 312 314 314 312 311 313 314 312 312 314 313 313 314 312 314 313 311 312 313 310 309 312 312 312 320 323 314 311 313 313 313 315 316 315 310 310 310 307 314 323 322 314 312 318 315 310 317 323 317 314 314 316 320 315 314 318 315 313 317 319 320 321 323 326 323 323
310 312 312 310 310 311 312 311 310 312 312 310 311 311 312 316 316 315 316 313 313 313 312 316 314 312 313 313 312 312 313 314 312 312 314 312 311 311 309 312 313 310 309 313 315 314 315 319 318 313 311 314 317 317 317 317 312 310 310 309 314 316 314 314 312 313 316 317 318 318 319 326 323 314 315 316 315 317 315 314 316 316 317 320 321 322 318 319
310 313 313 310 310 311 311 312 312 313 312 311 312 310 310 314 315 314 315 314 313 312 314 317 315 314 317 314 312 313 313 314 312 312 314 311 310 311 310 311 312 310 310 312 314 317 315 314 318 317 314 317 318 314 312 315 312 310 311 312 314 313 313 316 314 311 312 315 317 314 314 325 327 314 313 317 315 312 310 312 316 314 311 313 315 319 319 319
312 314 313 310 311 311 311 313 313 312 312 311 310 310 311 316 317 315 314 314 315 315 315 316 316 317 317 312 312 313 313 314 313 312 315 313 311 312 310 309 310 309 311 311 312 317 318 319 321 319 317 317 313 308 306 311 313 310 311 313 314 313 316 319 318 314 309 306 310 313 312 320 326 316 312 315 313 310 308 312 319 318 314 313 313 315 320 322
313 314 312 310 311 311 311 313 312 311 312 309 309 310 311 316 318 314 313 314 316 316 316 317 315 313 314 313 313 313 312 313 312 312 315 313 311 313 312 310 310 309 311 312 312 313 316 320 321 317 317 317 313 309 308 310 313 312 313 315 314 313 316 321 323 320 315 309 311 313 312 319 330 321 314 313 311 311 312 314 318 320 320 319 316 316 321 325
312 312 312 311 311 311 312 313 312 312 312 310 312 312 309 312 314 313 317 319 316 317 320 318 313 311 315 316 314 313 312 313 313 312 314 314 310 312 314 312 311 311 310 312 313 312 313 317 319 317 318 318 316 314 314 314 314 316 318 315 314 315 314 314 315 315 316 316 316 317 316 318 325 322 317 315 315 317 320 321 318 318 320 321 321 323 326 330
310 312 312 310 310 311 312 312 313 312 311 312 315 314 311 311 311 311 319 319 314 317 320 316 313 317 320 316 311 312 312 313 315 313 312 314 311 310 312 312 311 311 312 315 315 312 314 318 317 316 317 316 317 317 317 318 315 316 319 314 312 314 313 313 315 314 315 316 316 318 316 313 314 317 314 313 315 316 317 319 317 317 320 321 323 328 328 330
309 312 312 309 309 311 310 310 312 311 311 312 313 312 313 315 310 308 314 316 312 315 319 316 317 321 318 313 311 312 311 312 315 313 312 313 312 310 310 311 311 311 315 319 316 315 320 319 313 314 315 313 314 315 317 320 318 317 318 315 312 312 312 317 321 317 314 314 312 314 314 310 312 315 314 314 318 318 316 316 316 316 318 320 323 328 327 326
308 310 311 310 311 312 311 310 311 311 310 311 311 310 313 315 312 310 311 313 312 314 317 317 318 318 315 312 312 312 311 311 312 312 313 313 313 311 309 309 309 311 316 317 314 317 321 316 312 315 315 312 314 317 318 318 317 317 317 314 313 312 312 317 318 314 314 315 313 312 312 311 312 316 317 318 318 320 321 320 318 316 316 317 319 320 320 320
306 307 307 308 310 311 311 310 310 311 311 311 311 311 312 313 314 313 312 311 311 313 316 317 317 319 317 313 313 314 312 311 311 312 312 313 315 314 311 309 308 310 313 310 311 317 318 314 314 315 314 313 316 320 320 317 315 317 317 314 313 312 312 314 314 313 314 314 312 313 314 312 311 314 317 319 319 320 321 319 317 317 315 314 314 316 318 319
303 305 304 306 308 309 310 309 309 311 311 312 313 312 312 313 313 314 313 313 314 314 316 320 320 320 317 313 314 318 314 312 313 314 313 313 316 317 315 313 311 311 312 310 311 314 314 315 316 312 311 313 314 318 318 315 315 317 315 314 312 311 312 312 313 313 313 312 312 315 317 314 311 312 314 317 319 318 315 313 313 314 314 314 316 318 319 320
303 304 305 307 307 307 308 309 309 311 310 312 314 312 311 312 313 314 313 314 317 315 314 317 319 318 316 315 317 320 316 314 314 315 315 314 314 316 316 317 316 312 311 310 309 308 310 317 316 311 311 313 312 314 315 314 315 316 314 313 311 311 312 311 312 312 312 312 311 312 315 314 311 313 314 315 316 314 312 314 316 315 315 317 318 318 318 317
300 301 303 307 307 305 307 309 310 312 310 311 312 311 311 311 311 313 313 312 315 316 314 317 317 316 316 316 319 320 318 319 320 318 315 314 315 317 315 317 317 313 311 311 311 310 310 315 315 311 312 313 310 311 313 313 313 313 314 313 311 311 312 311 311 312 311 312 312 311 313 311 310 312 314 315 316 314 314 315 316 316 315 315 316 316 316 315
300 299 301 307 308 305 306 308 309 312 311 310 311 310 311 311 311 313 313 312 314 315 316 317 317 318 319 319 320 319 316 317 318 315 312 314 318 319 316 315 315 313 312 312 314 315 313 315 316 314 314 314 308 308 313 314 312 311 312 313 311 311 311 311 311 311 311 312 312 312 311 310 312 314 313 313 315 314 313 313 312 313 313 312 313 313 312 312
Wind_Speed
32 31 31 29 27 25 24 23 22 23 20 22 22 18 17 18 17 17 17 17 17 18 18 18 18 18 18 17 16 16 13 11 10 11 14 19 19 15 12 11 9 9 10 9 6 6 5 3 3 4 4 3 3 2 1 2 2 3 3 3 2 3 3 6 8 6 4 3 5 5 5 8 4 2 2 1 4 3 1 2 3 2 3 3 3 1 10 19
32 32 31 29 27 26 25 24 24 24 22 21 21 19 18 18 18 18 16 17 17 17 18 18 18 18 18 16 15 14 12 11 8 11 25 25 16 16 15 14 13 10 9 11 10 9 7 3 4 6 4 2 2 2 1 2 3 3 3 3 3 5 5 5 7 6 2 3 6 5 3 5 5 4 3 3 1 3 2 3 3 4 5 4 3 5 15 20
33 32 31 30 27 26 25 25 25 25 22 21 21 20 19 18 18 18 16 16 16 16 17 18 18 18 17 16 14 12 11 6 4 13 27 25 19 19 15 13 13 9 9 11 11 11 8 7 9 7 4 2 1 2 2 2 1 2 4 3 4 5 3 3 5 6 4 3 8 5 3 2 2 3 2 4 2 1 4 4 1 4 7 4 1 9 17 18
33 33 31 30 27 26 26 25 25 24 22 22 21 19 19 19 19 18 16 16 16 16 16 17 18 17 16 15 14 13 9 1 4 9 16 20 22 21 16 13 11 9 10 10 9 10 9 10 10 5 4 2 3 2 2 1 0 2 4 3 5 3 2 2 4 5 3 2 7 6 5 2 3 3 3 6 5 2 6 7 8 9 8 6 4 12 18 18
33 32 31 30 28 27 27 26 25 23 22 22 21 19 19 19 18 18 16 15 15 16 16 16 16 16 15 15 15 14 8 2 5 6 9 16 20 21 18 13 10 10 11 10 9 10 10 10 8 5 4 1 2 2 0 2 1 2 1 3 4 3 2 1 3 4 2 2 5 8 7 5 3 2 3 8 6 5 5 5 8 9 8 8 9 15 17 17
33 32 31 30 28 28 29 27 24 22 21 20 21 19 19 19 18 18 16 15 15 17 17 16 16 16 15 15 16 14 7 2 3 3 6 14 17 19 19 14 11 11 12 12 12 12 9 7 6 4 3 2 2 2 2 2 2 2 1 1 3 2 2 1 2 3 3 5 6 7 5 4 5 1 2 7 7 5 3 3 5 6 8 10 13 17 15 15
34 33 31 30 29 28 28 26 23 23 21 20 20 19 19 19 18 17 16 15 15 17 18 17 17 16 16 16 14 9 3 4 4 5 3 11 17 19 18 15 12 13 14 14 13 8 6 7 5 5 5 3 3 2 2 1 4 4 2 1 2 1 2 1 2 3 4 5 5 4 4 5 6 4 2 5 9 4 2 3 2 3 9 12 13 17 17 18
34 33 31 31 30 29 28 26 24 23 21 20 20 19 18 18 18 17 15 15 14 16 18 18 17 17 17 16 11 3 3 5 4 4 1 7 15 17 16 14 13 15 16 16 14 9 6 8 6 5 4 2 4 3 2 2 4 3 3 2 3 2 1 1 2 4 3 2 1 4 5 2 5 4 2 7 9 5 4 2 3 5 8 10 11 15 17 18
34 33 32 31 31 30 27 27 27 24 20 21 20 18 18 16 17 16 16 14 13 15 17 18 18 18 18 14 8 2 6 7 5 3 1 7 13 16 16 13 15 16 15 14 14 12 7 5 6 5 5 3 5 4 2 3 1 2 4 3 4 1 2 2 4 4 3 1 1 5 4 2 2 1 3 7 6 4 1 3 4 6 6 7 9 14 16 15
34 34 33 32 31 30 27 28 29 25 21 21 20 18 17 16 16 15 15 13 13 15 17 18 18 19 18 11 6 4 6 6 8 4 3 9 12 15 16 13 16 17 14 11 11 13 7 6 7 5 5 3 4 3 1 3 2 3 6 5 5 2 2 2 4 3 1 2 2 5 4 2 1 1 4 3 2 2 2 3 2 5 7 8 7 10 15 15
34 35 34 33 32 31 29 28 28 25 22 20 19 18 17 16 15 13 13 13 14 16 17 18 20 20 16 10 7 5 4 4 7 5 6 10 11 15 14 12 15 16 14 8 10 13 6 8 12 6 2 3 4 3 0 2 4 5 7 6 6 3 3 4 5 3 2 2 2 5 4 2 2 1 6 3 4 1 5 4 3 5 6 6 6 6 10 13
35 35 34 32 32 30 28 28 28 25 22 20 19 17 16 15 14 12 12 14 13 15 17 19 21 19 12 6 5 6 3 4 7 7 9 10 11 13 10 11 14 13 13 7 10 13 6 11 15 7 1 5 5 2 2 3 4 3 4 5 5 6 5 5 3 3 2 2 2 3 2 3 2 5 8 4 5 3 4 4 4 5 5 4 5 4 6 10
35 35 34 32 31 28 27 29 28 25 21 20 19 17 16 14 12 11 12 14 13 14 16 19 21 17 9 2 5 9 6 4 6 8 10 10 10 11 9 11 12 10 9 7 10 11 7 13 14 7 2 6 4 2 5 4 3 2 3 4 2 5 3 3 2 3 1 2 4 1 2 5 7 9 8 4 4 3 2 4 4 4 4 4 4 4 6 9
36 35 34 32 31 28 29 29 27 24 22 21 20 19 17 14 13 11 11 13 13 13 15 19 21 13 5 2 5 10 9 5 7 9 10 11 10 10 9 11 10 7 6 5 9 9 9 13 12 8 3 3 3 3 5 5 4 2 2 2 2 2 3 5 3 2 3 1 4 3 2 6 7 7 4 4 3 2 3 5 5 4 4 4 4 5 6 8
36 35 33 32 31 29 29 30 26 23 23 23 20 19 17 14 13 10 10 12 12 13 15 19 19 9 3 2 3 8 11 7 8 10 10 12 12 10 9 10 8 6 5 6 10 10 10 13 10 6 1 2 5 6 4 4 4 3 2 1 2 3 4 6 3 2 3 0 5 5 3 6 7 7 4 4 3 4 5 6 4 5 5 5 4 5 5 6
37 35 33 32 31 29 30 30 27 24 23 23 19 18 17 14 12 10 11 12 11 15 16 15 15 8 3 2 3 7 9 7 9 11 11 13 12 9 11 12 8 8 9 9 13 11 9 9 5 2 3 3 4 6 5 4 3 4 2 3 2 3 2 4 1 2 1 0 3 2 2 3 3 5 4 4 4 4 3 7 6 6 6 6 5 5 5 6
37 35 33 33 31 30 30 29 28 25 23 23 20 18 16 13 12 10 11 12 13 16 14 12 13 6 2 3 4 4 5 7 11 12 13 12 11 12 14 9 7 10 11 10 9 6 6 6 2 0 3 3 3 5 5 1 2 2 2 2 2 3 3 2 2 3 4 2 1 1 2 6 5 5 6 4 2 3 3 7 7 6 6 5 5 5 6 7
37 35 33 33 31 30 30 29 29 26 24 23 20 18 16 13 12 11 13 15 14 12 7 6 9 4 2 4 4 3 5 10 14 13 13 12 12 15 12 6 7 10 9 6 3 3 4 4 2 2 3 3 3 5 5 5 5 5 3 3 1 1 3 2 3 2 3 3 3 1 4 10 10 9 9 5 4 3 6 6 6 6 6 6 5 5 6 7
37 34 33 33 32 31 30 30 29 28 27 23 20 19 17 14 11 9 11 12 9 6 3 5 6 3 4 6 3 5 9 14 14 11 12 13 13 12 9 8 8 7 6 3 1 1 2 3 4 4 3 3 5 5 7 7 8 9 6 5 5 3 3 5 4 4 0 3 3 5 5 8 10 10 10 6 4 4 6 5 6 7 7 7 6 6 6 7
36 34 34 33 32 31 30 31 30 30 27 25 27 21 13 10 7 4 4 3 3 2 2 6 7 3 1 2 6 12 13 11 7 6 11 13 14 12 6 4 5 6 4 4 2 1 3 4 3 5 7 8 8 6 5 5 6 8 6 4 4 4 1 4 3 4 0 4 3 4 4 7 9 11 12 8 2 4 7 7 8 8 7 7 7 7 7 9
36 35 34 33 33 31 31 31 30 30 27 29 30 14 5 8 5 6 5 1 3 1 1 4 5 3 2 4 10 13 9 5 3 4 11 12 13 12 2 2 5 3 0 3 3 2 4 4 6 6 7 7 6 6 7 6 6 6 6 5 2 2 2 2 1 4 2 2 3 1 3 9 10 10 11 7 3 6 8 8 9 9 9 7 7 8 8 8
36 35 35 34 32 31 30 28 29 29 26 28 20 3 3 7 7 14 12 3 2 1 3 3 3 3 2 4 8 6 4 5 4 1 7 9 7 7 1 3 7 4 1 3 4 3 2 4 7 6 5 7 6 5 8 7 6 5 4 5 2 2 2 2 2 4 4 1 3 2 3 9 10 9 11 9 7 7 7 8 8 8 8 7 6 8 8 8
37 36 35 34 31 30 28 26 28 27 25 25 14 3 6 9 16 22 11 4 2 2 3 3 2 2 2 3 5 3 4 5 5 3 5 7 4 3 5 5 6 5 3 5 6 6 4 5 5 6 7 9 6 4 8 8 5 4 4 5 2 2 2 1 3 3 3 1 1 1 3 7 7 6 9 8 5 6 6 7 7 7 8 9 7 6 6 8
38 37 34 34 32 29 27 26 26 25 24 22 15 8 10 15 23 21 6 4 3 1 1 1 1 4 2 3 5 4 4 2 4 5 5 6 5 3 5 5 5 5 4 6 7 7 4 4 2 8 7 8 7 4 7 7 2 0 3 5 3 4 4 3 2 1 3 2 2 2 3 6 4 4 7 5 4 5 4 5 7 7 7 8 8 7 8 9
39 37 35 35 31 28 28 25 21 23 22 17 14 10 12 18 21 14 5 4 1 2 0 1 0 3 4 3 4 4 4 2 1 2 3 6 7 4 3 3 3 5 5 6 7 5 3 2 4 8 5 6 8 4 5 7 4 1 4 6 6 7 7 3 4 4 3 2 3 3 2 5 4 4 7 4 6 6 5 5 7 6 5 5 7 8 8 8
40 37 37 35 31 31 27 16 15 23 17 12 16 13 13 18 16 9 5 5 0 1 2 3 1 4 6 3 2 4 5 2 1 2 3 6 4 4 4 1 2 3 6 6 5 2 1 2 3 7 7 6 7 5 6 6 6 2 4 5 6 7 8 7 6 4 2 2 2 3 3 4 6 5 6 4 6 9 7 6 7 5 5 5 5 6 6 7
41 38 39 35 33 33 20 9 16 21 9 10 19 15 13 17 12 5 5 5 2 3 3 1 0 6 8 1 2 6 4 3 2 3 2 3 1 3 4 4 2 2 3 4 2 1 3 4 4 6 6 6 6 5 6 7 7 3 2 6 8 9 9 7 6 4 2 2 2 4 3 2 5 6 6 4 5 8 8 7 7 5 6 5 5 6 6 6
41 40 40 34 34 31 16 14 22 17 6 10 19 16 15 15 8 3 6 3 2 2 4 1 0 6 5 2 4 4 2 2 5 2 2 3 1 3 4 5 5 5 1 4 4 2 3 5 5 7 5 4 5 4 5 7 6 3 2 6 7 8 8 6 6 4 1 1 2 5 3 1 5 6 5 5 4 7 8 8 7 5 6 5 5 6 6 6
42 41 39 35 34 26 14 16 23 19 11 13 19 18 16 12 5 4 4 2 2 1 1 1 3 3 2 3 5 4 1 2 3 2 2 4 2 4 4 5 7 8 3 3 6 2 2 5 7 7 6 5 3 2 1 4 3 3 5 7 6 6 6 5 5 4 3 2 4 4 3 0 5 6 4 3 2 6 8 7 6 6 6 6 6 6 6 6
43 42 39 37 32 21 12 14 23 23 13 14 21 20 15 8 3 5 2 3 3 1 1 1 2 3 6 7 3 3 3 2 1 1 2 2 4 6 3 3 6 8 4 6 4 0 1 1 1 3 3 5 5 3 2 2 5 8 6 7 7 6 5 4 3 4 3 2 5 5 2 0 3 6 4 3 4 6 4 2 3 6 7 6 6 5 6 6
43 41 40 37 29 22 14 8 20 22 12 16 23 17 10 4 3 5 4 3 3 2 1 1 1 4 11 13 5 0 3 2 0 4 3 1 4 4 2 2 4 5 3 4 3 3 3 3 1 0 1 4 6 5 5 3 5 6 4 5 6 4 4 4 4 3 2 4 5 3 2 1 3 5 4 4 6 6 4 4 3 5 8 6 6 6 6 5
44 41 39 34 28 25 13 5 19 22 14 20 21 9 5 4 1 4 3 2 3 3 4 4 4 6 11 12 8 4 4 2 1 4 5 3 3 4 3 3 4 4 1 3 1 3 3 1 1 1 0 3 6 6 4 5 4 5 5 6 5 2 3 2 3 1 2 5 3 2 1 2 5 8 8 10 10 7 7 6 5 5 8 8 7 7 6 6
44 41 37 31 28 26 13 7 21 22 17 22 14 4 5 4 6 5 3 3 2 2 4 4 2 6 9 8 6 4 3 2 4 4 3 3 4 3 0 2 5 5 3 5 4 2 1 3 1 2 1 2 4 6 3 2 0 4 6 6 5 3 3 2 3 2 3 3 3 2 1 2 4 5 9 14 12 6 6 7 6 6 8 8 8 7 8 8
44 40 35 29 27 24 13 11 22 22 20 17 8 4 6 5 6 5 5 5 1 2 3 4 6 7 6 4 4 4 3 2 3 4 3 4 5 4 2 2 2 5 4 3 3 5 4 3 2 3 2 1 2 3 5 6 4 3 3 5 5 5 5 4 4 3 3 2 3 3 2 3 2 1 5 10 9 5 4 5 5 6 8 7 7 8 8 8
42 38 33 27 24 20 12 13 21 23 19 10 4 6 9 8 5 5 7 5 1 2 3 4 8 8 3 2 1 3 3 2 2 4 3 5 7 7 6 6 5 4 6 5 3 2 3 3 3 2 3 1 2 2 2 6 4 1 2 5 3 4 5 4 3 5 3 0 1 2 3 4 3 5 7 4 6 7 4 4 4 6 7 5 6 8 6 6
38 33 28 24 22 18 13 15 20 22 16 7 6 9 8 6 4 4 6 5 4 7 8 5 4 5 3 1 1 4 1 3 4 3 3 3 3 7 7 6 7 6 6 6 3 1 2 2 3 2 2 2 2 3 1 2 3 2 2 3 4 3 8 6 2 0 3 0 3 1 3 5 4 7 7 3 5 6 3 4 4 5 5 4 5 6 4 5
31 25 19 17 20 19 15 15 20 19 11 5 8 9 4 2 4 5 6 6 7 10 11 5 1 4 6 3 4 6 2 3 4 3 4 4 2 6 7 4 5 8 7 4 2 3 5 2 3 2 2 1 1 2 3 3 3 5 3 5 4 3 5 4 2 2 3 2 4 1 3 5 2 3 6 7 6 6 4 5 5 3 2 4 6 5 4 5
24 17 10 13 21 19 15 16 19 14 5 3 9 8 2 2 3 4 7 8 8 7 7 6 3 3 6 6 5 6 5 4 5 4 4 4 4 6 10 5 4 8 7 3 2 1 5 3 2 1 2 1 3 3 3 3 4 3 4 3 4 3 2 2 2 2 1 2 4 3 3 3 4 4 5 4 3 5 5 2 2 2 3 4 5 5 5 5
18 10 4 13 23 18 16 19 15 8 4 6 10 7 1 2 1 2 5 8 8 5 5 5 2 2 5 6 6 6 6 5 8 6 4 4 4 5 9 5 2 6 5 3 4 2 4 4 1 1 1 1 3 1 4 1 4 4 2 2 2 3 4 2 3 4 3 2 2 4 4 3 6 6 5 7 6 4 2 4 1 4 5 5 5 4 4 4
11 5 3 17 25 20 20 19 10 5 6 7 7 4 1 1 0 3 2 4 4 3 4 5 3 4 4 4 4 6 5 5 8 6 3 5 4 4 6 5 5 6 2 4 3 3 3 3 3 1 3 1 1 2 6 7 3 2 3 3 1 2 2 2 1 2 3 4 3 2 3 5 6 4 7 9 8 5 2 3 4 4 3 4 4 3 3 2
6 3 5 20 28 24 22 14 5 6 5 2 2 2 1 1 3 2 2 1 2 2 4 5 5 5 5 4 4 5 5 4 6 5 2 5 6 4 6 7 9 9 5 4 3 4 2 3 5 3 0 3 3 3 3 5 4 4 4 6 6 4 4 3 2 1 2 3 4 4 3 7 6 4 6 8 6 5 5 3 4 3 1 3 4 5 4 2
4 3 8 24 31 26 18 7 2 3 3 2 3 2 2 2 4 4 1 1 2 1 3 4 4 4 5 5 4 6 7 5 6 6 3 6 7 5 5 6 10 12 9 4 3 3 3 4 5 2 2 4 3 3 2 3 1 2 2 4 5 4 5 6 5 4 2 2 2 3 1 7 6 4 6 6 5 5 5 5 4 4 3 4 4 5 4 3
3 4 12 27 33 22 11 5 3 2 1 2 0 2 2 2 3 3 2 0 2 2 2 2 2 3 3 3 4 7 8 5 6 8 4 3 4 3 4 8 10 10 8 4 3 3 2 4 4 1 2 2 3 3 1 1 1 1 3 3 5 3 3 5 5 4 4 4 3 3 2 7 6 3 4 5 5 5 5 5 6 5 4 4 6 6 5 4
2 4 7 21 31 20 7 6 8 7 4 0 2 2 1 1 3 4 3 1 1 2 3 3 2 3 3 4 5 8 9 5 5 7 3 3 3 1 4 11 12 10 6 4 6 6 3 3 5 4 2 3 3 2 3 3 2 3 3 2 4 4 6 4 2 4 3 5 6 5 4 7 6 4 2 3 4 5 6 5 6 6 5 5 6 5 4 4
3 3 3 9 17 12 4 4 7 7 5 4 4 4 2 2 1 2 4 3 0 2 4 2 2 3 4 4 5 5 8 5 3 5 2 2 2 3 1 9 12 9 4 1 5 7 4 4 5 6 6 4 4 5 4 3 2 2 1 4 6 7 9 6 2 4 2 5 7 7 6 5 5 5 4 4 3 3 5 4 4 6 6 6 6 5 4 3
2 3 3 3 4 4 2 1 4 5 6 6 6 4 3 3 0 1 3 3 1 1 3 2 2 4 4 5 6 5 8 3 3 3 4 3 2 2 1 5 6 4 1 4 7 7 3 2 5 8 10 10 10 9 5 5 6 5 5 8 9 8 8 6 5 4 5 3 4 8 8 3 4 5 5 6 5 5 5 4 5 6 7 7 7 5 5 4
0 1 4 3 2 4 4 0 4 5 5 7 6 4 4 5 2 1 2 1 3 2 3 2 2 3 6 8 6 5 8 4 3 3 4 3 2 2 2 1 2 1 2 4 7 5 4 3 7 9 11 11 9 8 5 7 9 11 9 10 10 10 9 8 7 9 6 6 6 13 9 8 9 8 8 8 6 6 6 7 7 7 7 7 5 5 6 6
0 1 0 0 1 5 7 6 6 6 6 7 5 4 6 6 5 3 1 2 1 1 2 2 1 3 9 11 7 5 6 5 2 3 3 3 3 1 3 2 1 1 2 3 3 4 5 6 7 8 11 10 4 5 7 8 7 8 10 12 12 12 13 13 15 13 9 8 15 12 11 14 11 7 10 10 8 8 8 7 6 5 6 6 5 5 5 5
1 1 1 2 2 2 6 7 8 8 8 7 3 3 8 10 8 4 2 3 1 1 2 4 4 4 6 8 7 6 7 7 5 4 3 3 3 3 2 1 1 1 2 4 2 1 4 5 4 7 11 10 3 3 5 7 6 5 9 12 13 15 17 17 18 16 12 15 19 7 7 12 9 9 12 10 7 8 5 3 4 5 7 7 6 5 6 6
1 1 0 2 3 3 5 7 9 8 6 5 3 4 6 10 9 4 1 3 4 3 1 4 6 5 4 4 5 4 7 8 7 7 7 6 4 3 4 4 3 1 2 3 2 1 3 3 2 5 5 7 3 3 2 4 5 5 5 8 11 14 16 16 17 15 11 15 16 4 4 12 6 9 9 6 5 5 4 6 8 7 8 8 7 7 6 7
1 0 1 3 2 2 4 5 7 7 4 5 6 4 5 10 10 5 1 1 4 6 5 7 8 5 3 4 5 3 5 5 6 9 10 9 7 5 3 4 7 7 4 4 3 2 4 2 2 5 4 5 2 5 5 6 5 3 2 7 13 14 14 15 14 11 10 14 13 5 9 12 5 8 7 6 8 8 7 10 10 9 9 7 6 8 8 8
1 0 1 3 3 2 2 3 5 7 5 4 4 3 4 6 6 7 4 0 2 4 6 10 10 5 3 4 4 4 6 6 5 5 6 5 4 4 3 3 6 8 8 6 3 2 5 5 2 4 6 4 3 4 7 7 4 3 7 13 18 17 15 12 8 6 9 11 9 8 12 9 6 8 9 8 8 10 11 11 9 10 9 6 6 9 9 9
Wind_Direction
183 183 185 186 191 193 194 194 195 200 195 189 189 185 187 187 187 189 188 189 194 196 198 199 197 196 198 200 202 211 217 219 223 213 221 235 235 232 234 239 247 259 247 233 212 177 148 120 138 117 122 96 10 318 33 20 60 63 77 98 137 174 203 187 179 194 172 174 192 207 194 156 166 204 174 129 52 51 68 308 309 316 273 231 263 228 152 159
183 182 185 185 189 192 192 194 197 197 189 184 185 184 186 185 186 188 188 189 191 193 196 196 194 195 198 198 197 201 205 217 231 237 237 235 236 237 234 240 247 259 239 215 214 187 154 148 141 100 79 79 352 344 48 359 58 87 106 114 193 199 206 197 173 181 184 143 154 174 187 167 175 165 150 173 353 37 144 269 330 319 269 250 287 169 158 161
183 181 183 184 188 189 190 192 193 191 184 181 182 184 185 184 185 186 187 188 188 190 192 192 193 195 197 194 191 193 192 204 243 251 246 234 230 236 231 230 236 243 227 215 217 200 180 166 145 111 61 73 352 8 61 13 28 141 117 112 226 213 204 215 181 187 223 157 138 153 165 163 197 162 160 176 153 109 193 221 210 254 244 228 221 158 161 164
183 181 182 181 184 188 190 189 188 187 182 182 183 183 183 184 186 185 186 187 187 189 189 189 192 193 193 188 186 183 170 148 259 244 247 233 226 230 227 223 224 225 218 212 210 202 181 144 128 97 76 74 336 8 81 352 274 141 119 159 217 196 136 197 201 206 228 161 142 140 133 161 213 167 157 150 138 241 239 221 200 214 213 190 177 165 165 167
182 181 179 178 180 186 190 187 184 182 179 181 183 182 183 186 187 184 186 188 187 188 188 190 191 190 186 182 180 174 147 71 263 236 228 222 220 225 223 217 216 213 207 200 185 173 157 133 108 69 76 104 353 43 122 306 65 100 100 165 177 152 110 190 220 207 186 102 122 131 148 175 159 139 154 155 172 229 236 227 213 210 190 172 170 168 167 170
183 181 178 177 178 184 188 182 178 178 177 180 182 181 184 187 184 182 186 185 185 186 189 190 187 184 181 179 177 171 159 183 292 309 230 207 202 210 213 211 210 201 196 186 167 150 136 115 103 109 80 77 131 140 203 304 35 119 239 110 166 172 111 188 243 209 161 120 141 157 168 141 122 172 164 174 208 217 215 248 238 219 177 161 158 163 167 175
182 180 179 176 175 181 182 176 174 179 179 179 180 181 185 189 185 182 182 181 183 185 187 187 183 179 175 172 168 162 191 253 315 346 256 200 192 195 198 204 202 191 188 176 160 144 126 115 127 143 97 86 165 171 180 11 37 94 155 151 160 151 89 258 225 176 150 142 178 171 130 124 155 182 95 215 232 220 251 292 258 187 156 151 156 168 177 182
180 180 179 175 174 176 175 175 180 181 179 180 180 180 185 190 188 181 178 179 181 183 184 182 178 174 171 165 153 137 236 249 321 2 257 194 184 182 185 192 187 184 185 180 170 154 136 133 149 147 110 166 168 142 153 98 38 80 149 171 132 107 30 349 108 109 125 136 195 128 116 166 189 159 127 242 245 251 279 356 99 124 142 159 166 178 183 187
179 179 178 174 174 174 172 177 186 185 179 180 177 177 184 186 184 181 178 177 178 181 180 178 174 168 170 162 132 152 221 233 271 332 207 181 174 171 175 180 181 183 185 189 180 161 156 155 173 170 148 179 141 130 170 144 219 156 133 140 118 70 342 67 91 75 110 97 47 129 100 343 223 157 260 249 254 275 298 91 120 128 151 182 178 185 187 190
179 179 177 173 173 174 174 178 185 185 179 178 176 177 181 180 181 180 176 173 174 177 175 175 172 166 168 155 132 194 221 230 240 250 173 170 169 168 171 176 181 185 183 186 182 168 171 178 174 155 131 134 122 115 182 168 184 131 116 105 89 74 338 66 100 50 63 78 41 142 118 341 293 318 261 256 320 307 115 118 168 157 176 197 192 194 193 197
180 179 177 174 173 175 176 177 181 181 177 175 176 178 177 177 178 174 169 170 171 173 174 174 168 167 169 154 156 206 219 217 220 207 174 169 171 173 173 179 183 188 183 175 189 186 182 169 151 121 124 152 124 82 360 154 109 120 127 94 26 27 50 40 82 35 6 88 46 123 121 331 18 318 235 252 343 334 147 162 200 190 204 206 203 208 203 209
180 179 177 175 174 175 176 177 178 176 172 174 175 173 170 174 173 165 164 166 168 171 175 173 169 169 162 143 183 202 195 207 203 185 174 168 170 176 177 183 184 190 190 180 195 196 188 166 142 102 207 150 129 117 138 110 88 121 122 96 356 10 45 17 44 339 356 110 325 110 108 296 220 234 244 280 346 43 134 188 222 215 231 228 220 225 218 222
179 178 177 176 174 173 172 174 174 170 168 172 172 166 165 171 169 162 161 162 164 172 175 172 171 169 150 133 209 202 200 197 192 184 173 168 169 175 178 181 182 189 201 195 186 186 181 171 145 107 117 114 124 173 123 68 61 128 67 93 60 24 15 346 355 319 75 104 312 160 195 272 246 252 265 314 351 56 134 228 240 237 244 248 239 235 232 228
179 177 177 176 172 170 170 170 168 165 168 171 167 164 164 165 164 159 158 163 165 170 174 172 172 166 142 185 204 199 205 195 190 184 170 170 163 160 165 170 179 186 200 193 167 161 160 156 129 101 97 91 127 124 69 29 26 99 67 57 82 140 256 312 347 353 121 103 348 108 204 271 263 267 278 326 352 128 228 251 249 257 257 252 245 240 242 234
178 176 175 175 171 169 170 168 165 164 169 170 166 166 164 159 161 156 156 165 164 166 167 169 173 158 109 251 211 185 194 190 187 185 176 174 160 148 159 162 165 160 153 148 138 133 140 134 105 91 79 25 102 95 53 25 20 39 104 306 348 160 243 315 352 48 138 258 23 97 214 275 269 266 272 331 22 152 230 262 267 269 266 259 250 242 244 247
177 175 174 173 171 170 170 169 165 164 166 165 165 168 163 156 157 152 156 161 158 161 158 164 176 159 112 204 169 163 183 190 183 181 179 176 167 153 150 148 134 124 121 118 119 116 110 101 79 100 108 71 95 100 77 43 8 357 98 177 254 162 227 315 3 359 46 138 15 82 217 271 272 267 286 342 61 114 241 269 279 272 267 261 249 243 242 251
176 174 173 172 172 171 170 168 165 164 163 159 159 163 158 152 151 145 151 151 147 152 152 168 177 160 85 145 149 171 181 177 172 172 174 176 175 158 143 129 109 112 107 105 112 94 58 55 58 135 65 77 111 104 99 67 248 276 51 120 218 177 181 279 251 321 23 103 228 23 242 245 256 275 289 298 108 103 262 266 276 272 268 261 248 248 244 244
175 174 172 172 173 171 168 166 164 164 163 161 162 157 145 135 135 137 142 139 130 131 136 173 168 154 238 184 168 184 162 157 159 160 164 167 167 158 144 121 117 112 92 79 79 46 28 29 66 105 46 61 127 119 144 199 190 182 169 134 171 205 198 244 235 261 24 83 198 206 251 258 274 284 282 266 169 183 251 256 269 271 268 265 256 248 243 243
174 173 171 171 172 170 167 163 163 166 165 164 158 143 127 115 111 123 143 140 127 125 154 185 166 162 207 196 159 118 129 141 147 149 151 155 156 146 124 113 115 101 97 96 61 49 67 57 68 124 135 159 183 172 175 194 171 163 169 143 152 173 221 242 249 266 119 122 215 220 233 265 279 282 283 274 174 199 257 268 266 264 260 260 254 247 246 245
174 172 169 170 170 168 166 163 164 167 165 157 148 135 122 121 108 119 167 177 173 174 198 181 169 153 122 152 131 120 121 125 129 145 150 155 148 126 83 77 79 61 109 145 146 118 90 118 166 180 181 188 187 168 147 153 137 135 129 113 148 158 213 249 264 303 156 148 235 234 249 273 269 271 276 277 246 243 265 268 264 260 253 249 244 246 244 242
173 170 168 168 169 167 165 165 166 166 164 158 153 141 144 160 143 159 167 225 224 224 322 177 147 122 83 120 143 136 119 91 68 130 153 158 149 135 62 23 107 78 124 149 129 79 84 150 207 210 188 172 153 131 111 98 85 98 130 133 148 177 203 256 257 318 349 171 254 356 305 271 261 265 271 272 263 249 247 245 251 253 249 246 240 246 247 251
172 170 168 167 167 166 165 165 166 167 167 166 165 155 187 174 137 150 147 99 228 13 54 137 85 48 48 117 158 156 89 90 89 121 165 155 149 157 142 74 127 146 245 123 108 91 123 208 225 206 153 108 86 92 97 88 87 85 106 130 159 223 215 294 300 333 7 165 262 351 318 272 263 260 262 259 246 241 240 235 242 248 252 252 236 241 253 266
171 169 168 167 166 163 163 163 164 169 173 174 182 202 169 157 139 145 137 80 153 22 65 136 101 89 63 114 182 167 87 127 155 218 199 152 141 164 131 107 127 135 152 162 147 147 178 248 233 170 139 114 86 74 97 86 80 92 107 129 181 234 166 215 251 319 10 75 253 291 286 282 281 278 268 263 261 266 267 256 253 249 251 258 253 246 249 257
170 169 168 166 163 159 161 161 161 172 178 182 196 192 152 146 148 147 117 69 133 1 82 169 140 152 141 145 178 149 107 134 157 176 195 151 136 143 136 132 128 129 171 172 147 153 186 271 169 137 136 129 116 106 120 112 78 48 156 146 170 196 178 195 188 83 3 18 42 39 314 295 306 310 278 289 335 298 292 301 277 258 251 264 273 264 247 244
169 169 167 164 160 157 158 156 163 176 178 188 204 189 149 149 157 152 100 78 119 344 212 165 345 191 173 131 155 159 126 89 108 180 180 147 137 133 133 128 131 159 179 141 124 150 206 277 132 131 127 124 127 150 170 146 127 274 217 178 174 172 161 152 127 89 47 353 4 27 318 286 316 309 265 302 346 307 307 314 280 276 280 266 264 265 259 256
169 169 166 163 158 155 155 154 172 174 172 203 199 175 158 158 162 161 99 64 215 242 163 156 150 180 170 131 144 145 121 122 316 15 118 139 134 116 130 107 55 163 172 138 125 155 183 9 89 129 137 134 137 176 201 153 126 202 226 169 149 136 131 139 139 109 113 208 341 47 164 255 317 305 270 311 323 299 301 288 276 289 290 266 255 267 275 275
169 168 165 162 159 157 155 152 168 165 164 213 191 170 167 163 160 162 83 49 259 186 134 166 304 164 168 184 138 138 155 189 124 54 74 124 85 60 123 168 104 141 174 130 140 207 121 81 72 105 115 128 146 192 208 151 131 200 225 132 131 127 134 144 125 108 171 210 331 18 108 222 298 278 277 321 314 304 306 286 293 304 279 271 267 268 270 270
168 167 164 161 161 163 163 152 158 167 180 185 177 169 165 160 156 123 91 91 234 141 133 227 149 145 150 51 72 104 196 180 123 169 338 71 92 46 103 177 148 133 153 132 175 238 106 141 163 138 122 151 179 228 205 140 120 237 203 126 130 124 126 123 97 92 33 30 298 328 35 195 266 273 301 348 336 303 291 277 293 302 284 292 293 285 281 276
167 165 162 160 162 167 175 162 163 177 185 164 166 169 160 156 152 84 84 156 181 66 103 127 117 135 130 87 61 46 39 38 106 205 341 66 70 49 113 180 133 116 54 85 159 195 90 179 185 148 146 181 185 316 242 132 113 182 147 103 86 79 80 81 88 97 48 42 237 279 6 226 265 284 307 5 309 263 269 276 279 277 276 285 290 294 300 303
167 165 162 160 161 164 162 168 176 177 175 164 164 163 153 147 131 107 135 202 150 75 30 116 154 158 145 132 53 5 82 42 33 91 26 60 33 31 102 148 101 106 41 39 91 230 323 223 180 118 151 170 139 70 36 95 128 139 125 84 68 42 37 49 54 78 68 307 250 261 323 314 272 282 253 208 219 219 232 270 266 284 293 285 285 298 309 315
166 164 163 162 163 163 150 168 186 176 166 164 159 154 143 98 70 137 188 206 128 94 84 151 184 145 157 158 148 122 95 39 339 122 124 118 43 48 115 110 77 79 52 52 41 339 11 42 4 41 120 126 106 71 37 35 95 105 99 99 87 12 12 28 1 41 112 251 260 272 310 167 224 262 248 243 253 229 197 177 206 287 302 295 299 311 313 312
166 164 165 166 167 168 162 180 181 169 160 160 153 144 125 96 169 180 189 183 151 184 175 176 203 175 171 163 145 151 122 76 194 140 140 141 127 150 153 167 153 100 137 173 78 6 42 49 310 10 290 150 116 85 38 352 20 77 106 113 101 20 20 7 310 326 210 242 271 296 295 206 231 251 257 262 262 237 217 212 211 258 286 289 300 314 318 316
166 163 163 168 170 172 174 168 168 165 159 158 148 89 87 131 201 185 158 186 187 187 148 122 139 153 155 150 147 154 107 113 188 156 129 119 139 176 330 166 146 118 172 178 125 100 16 310 302 105 264 228 137 125 135 238 195 127 140 132 130 117 103 227 257 287 253 255 302 298 252 254 268 263 250 251 255 233 208 227 225 236 262 279 298 312 311 304
163 161 161 169 173 174 175 165 168 166 156 154 147 102 121 174 200 146 155 206 263 55 89 102 114 121 133 141 177 178 87 54 176 134 119 124 140 186 224 223 153 100 112 144 152 160 168 251 234 164 219 295 153 173 155 145 136 162 162 129 146 157 150 197 208 196 231 263 311 299 253 206 196 249 233 236 262 277 229 243 247 245 258 277 304 306 294 289
159 158 160 167 172 174 174 171 172 166 155 147 145 156 173 195 189 147 169 193 198 70 55 87 119 125 134 46 331 216 115 117 175 110 133 160 166 187 188 198 200 137 123 156 196 161 153 227 266 265 265 117 151 239 117 109 116 210 133 106 157 184 137 137 174 174 170 10 279 251 240 218 207 280 271 241 278 291 270 260 243 252 276 305 304 289 283 290
154 155 158 163 169 172 172 174 172 166 159 145 156 181 199 196 172 168 165 150 148 133 106 85 93 123 160 54 300 241 71 114 166 142 166 191 192 192 188 195 194 179 161 154 166 155 143 245 315 332 334 65 163 226 78 108 158 155 124 158 204 163 113 116 176 106 77 185 256 226 258 291 327 295 294 334 306 288 280 265 243 255 291 303 276 272 287 306
148 150 152 158 168 169 166 169 167 164 159 154 182 192 192 159 163 157 141 129 144 140 127 133 143 143 164 161 192 206 160 113 162 172 176 187 220 195 194 219 193 188 194 155 160 198 154 129 338 26 81 17 238 155 56 37 111 124 173 194 175 113 96 113 137 23 42 230 271 301 249 294 344 283 317 352 324 296 279 259 261 271 258 251 266 277 292 298
141 139 135 158 170 166 156 161 162 153 127 161 198 204 147 125 171 146 135 134 140 142 140 156 166 145 167 175 181 187 175 156 171 180 168 184 244 201 180 198 197 192 201 153 134 194 123 112 330 3 143 303 341 87 89 25 52 121 183 166 115 132 156 105 135 151 121 227 280 310 287 267 203 222 293 308 288 304 309 290 257 249 228 244 275 293 301 310
133 132 121 168 173 167 154 154 152 136 133 185 199 212 179 116 190 193 158 141 130 134 154 167 161 123 169 173 159 167 181 173 169 177 177 185 240 217 179 179 187 190 192 141 155 174 109 124 226 307 256 291 1 81 169 177 17 39 98 99 68 125 157 154 146 161 174 192 257 310 325 268 221 213 230 231 232 254 343 31 337 252 247 242 255 280 298 316
137 138 130 168 174 168 151 143 134 146 186 197 193 194 185 105 158 267 236 142 128 135 163 171 153 140 159 163 150 163 172 165 170 187 210 182 193 230 202 179 156 165 123 69 125 159 102 124 166 304 329 212 180 223 191 174 144 99 121 154 159 62 112 155 88 109 142 156 179 252 298 270 248 207 200 223 234 208 139 20 310 281 256 231 234 241 253 278
157 136 133 168 172 162 145 136 151 185 185 187 143 147 193 129 141 202 309 81 117 129 144 143 139 144 150 151 163 170 149 143 177 191 222 197 193 219 212 184 159 153 124 79 128 161 141 127 145 145 284 193 225 274 210 180 160 147 166 181 173 138 122 147 249 240 117 134 164 168 248 268 258 207 204 224 228 205 185 214 268 287 221 199 201 210 216 217
161 125 149 169 171 161 149 148 182 164 143 162 157 139 136 102 125 160 206 64 92 89 93 104 117 134 147 151 153 161 154 151 182 189 206 210 206 219 215 173 154 155 151 136 151 160 129 103 112 144 206 208 254 292 215 214 215 124 184 190 165 157 140 149 206 219 119 104 135 116 252 270 260 214 217 232 230 227 216 207 230 250 225 203 194 208 223 225
147 108 142 163 168 164 155 159 171 159 196 217 175 47 66 88 113 151 187 99 99 114 88 91 132 135 149 156 141 160 169 165 186 196 202 200 209 236 191 149 143 154 151 138 157 158 120 105 103 64 307 313 318 331 20 349 18 165 231 193 156 177 147 143 179 168 132 158 143 82 284 268 272 256 232 240 250 259 247 217 215 232 242 232 214 206 211 224
133 100 123 160 170 173 172 178 185 185 187 127 68 78 34 43 114 148 179 202 156 142 126 127 161 143 150 154 136 164 182 178 196 204 188 172 199 291 164 157 153 161 170 175 175 174 180 157 124 103 42 4 350 335 335 319 245 207 228 167 137 118 95 103 130 89 103 198 157 137 237 256 276 310 294 262 288 292 265 232 211 216 225 229 224 221 229 249
126 100 60 154 168 179 195 185 177 166 150 122 119 141 126 49 76 163 153 138 216 169 138 138 165 110 123 138 106 149 184 172 171 191 173 186 222 6 155 181 174 173 190 158 149 156 173 173 147 145 160 174 191 201 220 230 194 211 208 161 164 149 136 148 129 96 211 220 158 170 230 256 291 321 320 288 297 284 255 239 227 229 231 236 239 245 251 259
146 137 130 130 147 185 224 55 116 140 154 149 144 160 146 113 37 320 107 122 209 164 84 92 160 94 104 143 123 156 194 168 77 156 169 179 214 341 323 199 190 187 103 109 138 141 131 177 185 181 187 193 195 198 184 133 145 192 192 174 177 171 155 137 111 161 197 156 166 222 230 236 262 268 265 256 241 228 229 227 231 235 236 240 243 249 254 248
228 128 147 139 119 173 200 219 129 144 165 168 165 173 152 133 130 50 48 90 183 145 58 54 149 136 149 159 145 168 191 167 86 145 153 153 199 308 346 149 181 309 30 138 156 127 101 198 208 197 208 211 193 186 167 144 174 191 175 169 175 169 158 150 179 205 153 110 235 239 216 219 233 221 225 236 226 230 242 230 224 227 232 239 240 242 250 254
121 61 69 54 108 178 192 190 159 140 154 169 166 155 153 151 151 151 100 41 98 152 94 74 243 192 168 162 151 152 163 155 165 172 139 139 157 80 23 46 178 298 35 135 162 112 132 205 210 193 217 227 172 153 172 163 175 180 168 174 175 168 172 182 205 208 148 168 238 229 187 214 221 188 211 225 210 216 227 218 219 236 246 250 245 245 270 297
88 83 333 358 36 155 162 149 131 131 152 158 147 168 171 170 170 171 129 94 99 264 129 146 202 193 167 162 144 148 167 168 188 205 173 153 150 123 88 88 240 327 79 128 167 137 160 208 198 177 215 236 177 139 181 160 149 165 178 180 170 173 186 193 210 212 183 210 236 206 171 229 217 179 210 224 211 217 228 244 250 246 246 253 265 291 313 310
114 140 127 54 53 76 114 126 129 139 157 158 171 198 182 175 175 174 124 130 159 204 179 155 160 135 137 150 124 155 192 170 167 191 174 154 167 179 173 181 176 79 91 145 168 199 198 223 149 141 207 245 193 127 117 126 144 161 174 179 174 183 196 203 217 217 200 228 243 225 257 264 230 183 216 243 243 246 274 278 266 256 259 272 292 304 296 277
92 198 114 102 89 86 117 131 130 138 163 186 188 187 184 189 180 152 131 140 144 164 166 148 141 112 80 109 108 169 206 162 161 188 176 163 176 182 185 190 163 147 161 174 152 155 184 203 60 108 179 248 229 145 124 81 77 86 155 187 187 191 200 208 217 208 193 220 234 233 259 262 211 173 207 233 240 246 253 256 258 262 263 267 273 273 268 266
70 17 66 98 101 113 124 118 131 156 179 184 174 162 168 184 166 141 161 274 79 140 157 149 144 120 96 143 165 195 186 152 147 166 151 131 123 106 97 139 144 149 164 164 147 153 158 152 119 142 179 258 316 136 129 88 69 259 234 202 193 198 205 209 225 225 204 207 209 215 237 236 157 167 198 206 218 230 235 238 243 253 262 267 255 254 258 262